TimeAKST,TemperatureF,Dew PointF,Humidity,Sea Level PressureIn,VisibilityMPH,Wind Direction,Wind SpeedMPH,Gust SpeedMPH,PrecipitationIn,Events,Conditions,WindDirDegrees,DateUTC
12:16 AM,32.0,28.4,87,29.32,10.0,SSW,9.2,-,N/A,,Overcast,200,2011-11-07 09:16:00
12:36 AM,32.0,26.6,80,29.33,10.0,SSW,8.1,-,N/A,,Overcast,200,2011-11-07 09:36:00
12:56 AM,30.2,26.6,86,29.33,10.0,SSW,9.2,-,N/A,,Mostly Cloudy,200,2011-11-07 09:56:00
1:16 AM,30.2,24.8,80,29.34,10.0,SW,11.5,-,N/A,,Scattered Clouds,230,2011-11-07 10:16:00
1:36 AM,30.2,24.8,80,29.35,10.0,SW,9.2,-,N/A,,Overcast,220,2011-11-07 10:36:00
1:56 AM,30.2,24.8,80,29.36,10.0,SW,10.4,-,N/A,,Mostly Cloudy,220,2011-11-07 10:56:00
2:16 AM,30.2,23.0,75,29.37,10.0,SSW,9.2,-,N/A,,Partly Cloudy,210,2011-11-07 11:16:00
2:36 AM,28.4,23.0,80,29.38,10.0,SSW,8.1,-,N/A,,Scattered Clouds,200,2011-11-07 11:36:00
2:56 AM,28.4,23.0,80,29.39,10.0,West,8.1,-,N/A,,Overcast,260,2011-11-07 11:56:00
3:16 AM,28.4,23.0,80,29.39,10.0,SW,9.2,-,N/A,,Mostly Cloudy,230,2011-11-07 12:16:00
3:36 AM,28.4,21.2,74,29.40,10.0,SSW,8.1,-,N/A,,Mostly Cloudy,210,2011-11-07 12:36:00
3:56 AM,28.4,21.2,74,29.40,10.0,SW,9.2,-,N/A,,Overcast,220,2011-11-07 12:56:00
4:16 AM,28.4,21.2,74,29.41,10.0,SW,8.1,-,N/A,,Overcast,220,2011-11-07 13:16:00
4:36 AM,26.6,21.2,80,29.41,10.0,SSW,8.1,-,N/A,,Overcast,210,2011-11-07 13:36:00
4:56 AM,26.6,21.2,80,29.41,10.0,SSW,8.1,-,N/A,,Overcast,200,2011-11-07 13:56:00
5:16 AM,26.6,19.4,74,29.42,10.0,South,8.1,-,N/A,,Overcast,190,2011-11-07 14:16:00
5:36 AM,26.6,19.4,74,29.43,10.0,SSW,5.8,-,N/A,,Overcast,200,2011-11-07 14:36:00
5:56 AM,26.6,19.4,74,29.44,10.0,SW,4.6,-,N/A,,Overcast,230,2011-11-07 14:56:00
6:16 AM,26.6,19.4,74,29.44,10.0,WSW,3.5,-,N/A,,Mostly Cloudy,240,2011-11-07 15:16:00
6:36 AM,24.8,19.4,80,29.44,10.0,Calm,Calm,-,N/A,,Overcast,0,2011-11-07 15:36:00
6:56 AM,24.8,21.2,86,29.45,10.0,South,5.8,-,N/A,,Overcast,180,2011-11-07 15:56:00
7:16 AM,24.8,21.2,86,29.45,10.0,South,5.8,-,N/A,,Overcast,180,2011-11-07 16:16:00
7:36 AM,24.8,19.4,80,29.46,10.0,Calm,Calm,-,N/A,,Overcast,0,2011-11-07 16:36:00
7:56 AM,24.8,19.4,80,29.46,10.0,SSE,5.8,-,N/A,,Overcast,160,2011-11-07 16:56:00
8:16 AM,24.8,19.4,80,29.46,10.0,South,3.5,-,N/A,,Overcast,190,2011-11-07 17:16:00
8:36 AM,24.8,19.4,80,29.47,10.0,NNE,3.5,-,N/A,,Overcast,20,2011-11-07 17:36:00
8:56 AM,23.0,17.6,80,29.47,10.0,Calm,Calm,-,N/A,,Overcast,0,2011-11-07 17:56:00
9:16 AM,23.0,19.4,86,29.48,10.0,East,4.6,-,N/A,,Overcast,90,2011-11-07 18:16:00
9:36 AM,23.0,19.4,86,29.49,9.0,Calm,Calm,-,N/A,,Overcast,0,2011-11-07 18:36:00
9:56 AM,23.0,19.4,86,29.49,5.0,Calm,Calm,-,N/A,,Overcast,0,2011-11-07 18:56:00
10:16 AM,23.0,19.4,86,29.50,1.5,Calm,Calm,-,N/A,,Overcast,0,2011-11-07 19:16:00
10:36 AM,23.0,21.2,93,29.50,1.5,East,6.9,-,N/A,,Overcast,90,2011-11-07 19:36:00
10:56 AM,24.8,23.0,93,29.52,1.5,ENE,4.6,-,N/A,,Overcast,70,2011-11-07 19:56:00
11:16 AM,24.8,21.2,86,29.52,1.0,ESE,4.6,-,N/A,,Overcast,110,2011-11-07 20:16:00
11:36 AM,24.8,21.2,86,29.53,1.2,East,4.6,-,N/A,,Overcast,80,2011-11-07 20:36:00
11:56 AM,24.8,19.4,80,29.54,1.0,NNE,4.6,-,N/A,,Overcast,30,2011-11-07 20:56:00
12:16 PM,23.0,19.4,86,29.55,1.0,North,3.5,-,N/A,,Overcast,360,2011-11-07 21:16:00
12:36 PM,23.0,19.4,86,29.56,0.5,Calm,Calm,-,N/A,,Overcast,0,2011-11-07 21:36:00
1:16 PM,23.0,21.2,93,29.57,0.8,ESE,4.6,-,N/A,,Overcast,120,2011-11-07 22:16:00
1:36 PM,21.2,19.4,93,29.58,0.8,ESE,9.2,-,N/A,,Overcast,110,2011-11-07 22:36:00
1:56 PM,21.2,17.6,86,29.58,1.8,East,9.2,-,N/A,,Overcast,100,2011-11-07 22:56:00
2:16 PM,21.2,19.4,93,29.59,2.5,ESE,8.1,-,N/A,,Overcast,110,2011-11-07 23:16:00
2:36 PM,21.2,17.6,86,29.59,2.5,East,6.9,-,N/A,,Overcast,100,2011-11-07 23:36:00
2:56 PM,21.2,17.6,86,29.60,5.0,ESE,6.9,-,N/A,,Overcast,110,2011-11-07 23:56:00
3:16 PM,21.2,17.6,86,29.61,7.0,ESE,6.9,-,N/A,,Overcast,120,2011-11-08 00:16:00
3:36 PM,21.2,15.8,80,29.62,9.0,ESE,8.1,-,N/A,,Overcast,110,2011-11-08 00:36:00
3:56 PM,21.2,15.8,80,29.62,7.0,East,8.1,-,N/A,,Overcast,100,2011-11-08 00:56:00
4:16 PM,19.4,15.8,86,29.63,2.5,East,8.1,-,N/A,,Overcast,90,2011-11-08 01:16:00
4:36 PM,19.4,15.8,86,29.64,4.0,ESE,8.1,-,N/A,,Overcast,110,2011-11-08 01:36:00
4:56 PM,19.4,15.8,86,29.64,5.0,ESE,5.8,-,N/A,,Overcast,110,2011-11-08 01:56:00
5:16 PM,19.4,15.8,86,29.65,1.8,ESE,5.8,-,N/A,,Overcast,110,2011-11-08 02:16:00
5:36 PM,19.4,15.8,86,29.66,2.0,ESE,3.5,-,N/A,,Overcast,120,2011-11-08 02:36:00
5:56 PM,19.4,15.8,86,29.66,7.0,ESE,3.5,-,N/A,,Overcast,120,2011-11-08 02:56:00
6:16 PM,19.4,15.8,86,29.67,10.0,Calm,Calm,-,N/A,,Overcast,0,2011-11-08 03:16:00
6:36 PM,15.8,12.2,86,29.68,10.0,Calm,Calm,-,N/A,,Mostly Cloudy,0,2011-11-08 03:36:00
6:56 PM,15.8,12.2,86,29.69,10.0,Calm,Calm,-,N/A,,Overcast,0,2011-11-08 03:56:00
7:16 PM,15.8,14.0,93,29.70,10.0,Calm,Calm,-,N/A,,Scattered Clouds,0,2011-11-08 04:16:00
7:36 PM,10.4,6.8,85,29.71,10.0,Calm,Calm,-,N/A,,Mostly Cloudy,0,2011-11-08 04:36:00
7:56 PM,12.2,8.6,85,29.72,10.0,Calm,Calm,-,N/A,,Overcast,0,2011-11-08 04:56:00
8:16 PM,8.6,6.8,92,29.73,10.0,ESE,3.5,-,N/A,,Overcast,120,2011-11-08 05:16:00
8:36 PM,12.2,12.2,100,29.74,10.0,Calm,Calm,-,N/A,,Mostly Cloudy,0,2011-11-08 05:36:00
8:56 PM,8.6,3.2,79,29.74,10.0,Calm,Calm,-,N/A,,Mostly Cloudy,0,2011-11-08 05:56:00
9:16 PM,10.4,6.8,85,29.75,10.0,Calm,Calm,-,N/A,,Overcast,0,2011-11-08 06:16:00
9:36 PM,8.6,6.8,92,29.76,10.0,Calm,Calm,-,N/A,,Mostly Cloudy,0,2011-11-08 06:36:00
9:56 PM,8.6,5.0,85,29.77,10.0,Calm,Calm,-,N/A,,Scattered Clouds,0,2011-11-08 06:56:00
10:16 PM,6.8,5.0,92,29.78,10.0,Calm,Calm,-,N/A,,Clear,0,2011-11-08 07:16:00
10:36 PM,6.8,6.8,100,29.78,10.0,Calm,Calm,-,N/A,,Clear,0,2011-11-08 07:36:00
10:56 PM,5.0,3.2,92,29.79,1.5,Calm,Calm,-,N/A,,Scattered Clouds,0,2011-11-08 07:56:00
11:16 PM,3.2,1.4,92,29.80,5.0,Calm,Calm,-,N/A,,Clear,0,2011-11-08 08:16:00
11:56 PM,3.2,1.4,92,29.82,10.0,East,3.5,-,N/A,,Mostly Cloudy,90,2011-11-08 08:56:00